Weather History for KMEI - February, 2014

Change the Weather History Date:

Thursday, February 6, 2014

  Actual Average Record
Temperature  
Mean Temperature 30 °F 47 °F  
Max Temperature 34 °F 59 °F 78 °F (1999)
Min Temperature 26 °F 35 °F 17 °F (1988)
Degree Days  
Heating Degree Days 35 18  
Month to date heating degree days 127 113  
Since 1 July heating degree days 2000 1750  
Cooling Degree Days 0 0  
Month to date cooling degree days 0 0  
Year to date cooling degree days 0 3  
Moisture  
Dew Point 24 °F    
Average Humidity 76    
Maximum Humidity 85    
Minimum Humidity 66    
Precipitation  
Precipitation T in 0.20 in 1.67 in (1958)
Month to date precipitation 2.78 1.23  
Year to date precipitation 5.25 6.36  
Sea Level Pressure  
Sea Level Pressure 30.38 in    
Wind  
Wind Speed 11 mph (North)    
Max Wind Speed 20 mph    
Max Gust Speed 24 mph    
Visibility 9 miles    
Events Snow    
T = Trace of Precipitation, MM = Missing Value Source: NWS Daily Summary

Daily Weather History Graph

Daily Weather History Graph

Search for Another Location

Airport or City:

Trip Planner

Search our weather history database for the weather conditions in past years. The results will help you decide how hot, cold, wet, or windy it might be!

Date:

Astronomy

Feb. 06, 2014 Rise Set
Actual Time 6:45 AM CST 5:33 PM CST
Civil Twilight 6:20 AM CST 5:58 PM CST
Nautical Twilight 5:50 AM CST 6:27 PM CST
Astronomical Twilight 5:22 AM CST 6:56 PM CST
Moon 11:05 AM CST (2/6) 12:01 AM CST (2/6)
Length of Visible Light 11h 38m
Length of Day
10h 47m
Waxing Crescent, 49% of the Moon is Illuminated
Feb 6
Waxing Crescent
Feb 6
First Quarter
Feb 14
Full
Feb 22
Last Quarter
Mar 1
New

Hourly Weather History & Observations

Time (CST) Temp. Windchill Dew Point Humidity Pressure Visibility Wind Dir Wind Speed Gust Speed Precip Events Conditions
12:58 AM 30.0 °F 20.0 °F 23.0 °F 75% 30.36 in 10.0 mi North 12.7 mph - N/A   Overcast
1:58 AM 28.9 °F 19.2 °F 21.9 °F 75% 30.35 in 10.0 mi NNE 11.5 mph - N/A   Overcast
2:58 AM 28.9 °F 18.6 °F 21.9 °F 75% 30.35 in 10.0 mi North 12.7 mph - N/A   Overcast
3:58 AM 28.9 °F 18.2 °F 21.9 °F 75% 30.35 in 10.0 mi North 13.8 mph - N/A   Overcast
4:58 AM 28.9 °F 17.7 °F 21.9 °F 75% 30.38 in 10.0 mi North 15.0 mph - N/A   Overcast
5:58 AM 28.9 °F 19.2 °F 21.0 °F 72% 30.40 in 10.0 mi NNE 11.5 mph - N/A   Overcast
6:58 AM 28.9 °F 18.2 °F 21.9 °F 75% 30.40 in 10.0 mi North 13.8 mph - N/A   Overcast
7:58 AM 30.0 °F 20.0 °F 21.9 °F 72% 30.40 in 10.0 mi NNE 12.7 mph 21.9 mph N/A   Scattered Clouds
8:28 AM 30.2 °F 19.3 °F 21.2 °F 69% 30.42 in 9.0 mi North 15.0 mph 20.7 mph N/A   Mostly Cloudy
8:58 AM 30.9 °F 21.7 °F 21.9 °F 69% 30.45 in 10.0 mi North 11.5 mph 19.6 mph N/A   Mostly Cloudy
9:58 AM 30.9 °F 20.7 °F 21.9 °F 69% 30.42 in 10.0 mi North 13.8 mph - N/A   Mostly Cloudy
10:58 AM 32.0 °F 22.5 °F 23.0 °F 69% 30.38 in 10.0 mi NNE 12.7 mph - N/A   Clear
11:48 AM 33.8 °F 24.8 °F 23.0 °F 65% 30.45 in 10.0 mi NNW 12.7 mph - N/A   Mostly Cloudy
11:58 AM 33.1 °F 24.9 °F 24.1 °F 70% 30.46 in 10.0 mi NNW 10.4 mph - N/A   Mostly Cloudy
12:58 PM 33.1 °F 23.9 °F 24.1 °F 70% 30.39 in 10.0 mi NNW 12.7 mph - N/A   Overcast
1:58 PM 33.1 °F 25.5 °F 24.1 °F 70% 30.39 in 10.0 mi NNW 9.2 mph - N/A   Overcast
2:58 PM 32.0 °F 22.5 °F 24.1 °F 73% 30.36 in 4.0 mi North 12.7 mph - 0.00 in Snow Light Snow
3:05 PM 30.2 °F 21.3 °F 24.8 °F 80% 30.34 in 2.0 mi North 10.4 mph - 0.00 in Snow Light Snow
3:12 PM 30.2 °F 21.9 °F 26.6 °F 86% 30.34 in 1.2 mi North 9.2 mph - 0.00 in Snow Light Snow
3:23 PM 30.2 °F 23.4 °F 26.6 °F 86% 30.35 in 3.0 mi North 6.9 mph - 0.00 in Snow Light Snow
3:32 PM 30.2 °F 21.9 °F 26.6 °F 86% 30.35 in 4.0 mi North 9.2 mph - 0.00 in Snow Light Snow
3:58 PM 32.0 °F 22.5 °F 27.0 °F 82% 30.36 in 9.0 mi NNE 12.7 mph - 0.00 in   Overcast
4:05 PM 30.2 °F 20.8 °F 26.6 °F 86% 30.36 in 10.0 mi North 11.5 mph - N/A   Overcast
4:58 PM 30.9 °F 22.8 °F 26.1 °F 82% 30.38 in 10.0 mi North 9.2 mph - N/A   Overcast
5:05 PM 30.2 °F 22.6 °F 26.6 °F 86% 30.38 in 10.0 mi North 8.1 mph - N/A   Overcast
5:58 PM 32.0 °F 26.4 °F 26.1 °F 79% 30.38 in 10.0 mi North 5.8 mph - N/A   Overcast
6:58 PM 32.0 °F 23.6 °F 25.0 °F 75% 30.39 in 10.0 mi North 10.4 mph - N/A   Overcast
7:58 PM 30.9 °F 21.7 °F 24.1 °F 76% 30.38 in 10.0 mi North 11.5 mph - N/A   Overcast
8:58 PM 30.0 °F 24.1 °F 24.1 °F 79% 30.38 in 10.0 mi North 5.8 mph - N/A   Overcast
9:20 PM 28.4 °F 21.2 °F 23.0 °F 80% 30.37 in 10.0 mi North 6.9 mph - N/A   Scattered Clouds
9:58 PM 27.0 °F 18.7 °F 23.0 °F 85% 30.37 in 10.0 mi North 8.1 mph - N/A   Clear
10:58 PM 27.0 °F 19.5 °F 23.0 °F 85% 30.38 in 10.0 mi North 6.9 mph - N/A   Clear
11:58 PM 26.1 °F 18.4 °F 21.9 °F 84% 30.38 in 10.0 mi North 6.9 mph - N/A   Clear